Location: Nairn
(57.5833°N, 3.8667°W)
Time: 03:34:05
(UTC+00:00)

Explorer 7 - Pass Details

Date: 03 December 2020
Orbit: 484 x 678 km, 50.3° (Epoch: 25 January)

Event Time Altitude Azimuth Distance (km) Brightness Sun altitude
Exits shadow 04:59:59 17° 160° (SSE) 1,451 9.1 -27.3°
Drops below altitude 10° 05:01:16 10° 145° (SE) 1,813 9.8 -27.1°
Sets 05:03:43 0° 132° (SE) 2,668 11.0 -26.8°
